Miscellaneous Local Product
Issued by NWS North Platte, NE

Home | Current Version | Previous Version | Text Only | Print | Product List | Glossary On
Versions: 1 2 3 4 5 6 7 8 9 10 11 12 13 14 15 16 17 18 19 20 21 22 23 24 25 26 27 28 29 30 31 32 33 34 35 36 37 38 39 40 41 42 43 44 45 46 47 48 49 50
000
AXUS43 KLBF 011410
MISLBF


WESTERN AND NORTH CENTRAL NEBRASKA HOURLY WEATHER ROUNDUP
NATIONAL WEATHER SERVICE NORTH PLATTE NE
800 AM CST SUN FEB 01 2015

***STATIONS NOT REPORTING VARIABLES SUCH AS SKY/WEATHER OR
PRESSURE ARE PROVIDED BY THE NEBRASKA DEPARTMENT OF
ROADS...RAWS...AND APRS NETWORKS...AND ARE NOT UNDER
NATIONAL WEATHER SERVICE QUALITY CONTROL***

...OBSERVATIONS IN AND NEAR THE EASTERN PANHANDLE OF NEBRASKA...

CITY           SKY/WX    TMP DP  RH WIND       PRES   REMARKS
PINE RIDGE     CLOUDY     4  -2  76 N8        30.27R WCI  -9
CHADRON        LGT SNOW   6   1  80 N9        30.30R WCI  -8
ALLIANCE       CLOUDY     6   0  76 N18       30.18R WCI -13
SIDNEY         MOCLDY    11   8  88 N16       30.13R FOG     WCI  -6
WHITECLAY        N/A      2  -3  77 W8          N/A  WCI -11
CRESCENT LAKE    N/A      7   1  77 N16G24      N/A  WCI -11
LISCO            N/A     13   3  65 NW16        N/A  WCI  -3
LEWELLEN         N/A     11   3  71 S12         N/A  WCI  -4
$$

...OBSERVATIONS IN NORTH CENTRAL NEBRASKA...

CITY           SKY/WX    TMP DP  RH WIND       PRES   REMARKS
VALENTINE      LGT SNOW   2  -3  80 N23G33    30.26R WCI -21
THEDFORD       LGT SNOW   6   1  81 N23G29    30.19R WCI -16
AINSWORTH      LGT SNOW   3  -2  81 N28G37    30.22R WCI -21
O`NEILL        LGT SNOW   4   0  84 N24G33    30.19R VSB 1   WCI -18
ORD            LGT SNOW   6   1  80 N24G38    30.14R VSB 3/4 WCI -16
BROKEN BOW     CLOUDY     7   2  80 N30G38    30.13R BLWGSNOWWCI -16
BROWNLEE         N/A     -1  -6  78 N24         N/A  WCI -25
SPRINGVIEW       N/A      3  -1  85 NW14G24     N/A  WCI -15
HALSEY           N/A      4   0  83 NW15G28     N/A  WCI -14
BREWSTER         N/A      8   5  86 SW20        N/A  WCI -11
ROSE             N/A     30  28  93 SW21        N/A  WCI  17
NEWPORT          N/A      9   7  89 W18         N/A  WCI  -9
SARGENT          N/A      6   3  89 NW9G16      N/A  WCI  -8
COMSTOCK         N/A     10   5  80 E20         N/A  WCI  -9
CHAMBERS         N/A      4  -1  80 N8G24       N/A  WCI  -9
EWING            N/A      4   1  88 N15G25      N/A  WCI -14
$$

...OBSERVATIONS IN SOUTHWEST NEBRASKA AND FAR NORTHEAST COLORADO...

CITY           SKY/WX    TMP DP  RH WIND       PRES   REMARKS
WRAY           FAIR      19  15  85 N15G23    30.14R WCI   4
IMPERIAL       CLOUDY    12   5  73 N26       30.17R WCI  -8
OGALLALA       CLOUDY    11   6  79 N20G26    30.19R WCI  -7
NORTH PLATTE   CLOUDY     9   2  73 N21G30    30.17R WCI -11
MCCOOK         CLOUDY    13   6  74 N28G33    30.14R WCI  -8
LEXINGTON      CLOUDY    11   7  82 N22G28    30.13R HAZE    WCI  -8
BRADY            N/A      8   3  80 SW5G13      N/A  WCI   0
GOTHENBURG       N/A     10   4  77 NW15        N/A  WCI  -7
CALLAWAY         N/A      6   3  87 NW23        N/A  WCI -15
$$

...NORTH PLATTE AREA...

CITY           SKY/WX    TMP DP  RH WIND       PRES   REMARKS
AIRPORT        CLOUDY     9   2  73 N21G30    30.17R WCI -11
DOWNTOWN         N/A      8   2  76 N12G26      N/A  WCI  -7
$$

...SOME WEATHER OBSERVATIONS FROM AROUND THE REGION...

CITY           SKY/WX    TMP DP  RH WIND       PRES   REMARKS
DENVER         CLOUDY    19  15  84 NE8       30.09R WCI   9
LARAMIE        CLOUDY    17  12  80 NW17      30.02R WCI   1
CHEYENNE       CLOUDY    14  10  84 N16G22    30.04R WCI  -2
SCOTTSBLUFF    CLOUDY    17  11  77 N13       30.19R WCI   4
RAPID CITY     PTCLDY     0  -4  83 N21       30.31R WCI -22
PIERRE         LGT SNOW  -2  -7  79 N18       30.40R WCI -24
WINNER         LGT SNOW   2  -3  80 N23       30.31R WCI -21
SIOUX FALLS    SNOW       7   3  84 N24G31    30.16R VSB 1/2 WCI -14
OMAHA          SNOW      23  21  92 N26G33    29.90R VSB 1/2 WCI   6
GRAND ISLAND   BLWGSNOW   9   5  84 NW29G37   30.09R VSB 1/4 WCI -13
KANSAS CITY    SNOW      32  32 100 NW6       29.73R VSB 1/4 WCI  26
WICHITA        CLOUDY    30  24  78 NW32G40   29.92R WCI  14
HAYS           CLOUDY    18   7  62 NW18G40   30.07R WCI   2
LIBERAL        CLEAR     27  19  74 N21G30    30.08R WCI  13
GOODLAND       CLOUDY    17  12  80 N24G37    30.11R WCI  -1
$$



USA.gov is the U.S. government's official web portal to all federal, state and local government web resources and services.